Terminal Aerodrome Forecast
Issued by NWS

Home | Current Version | Previous Version | Graphics & Text | Print | Product List | Glossary On
Versions: 1 2 3 4 5 6 7 8 9 10 11 12 13 14 15 16 17 18
000
FTUS43 KABR 171600 AAD
TAFATY
TAF AMD
KATY 171657Z 1717/1812 30009KT P6SM FEW009 BKN014
      TEMPO 1717/1718 SCT014
     FM171800 36006KT P6SM SCT020 SCT050
     FM172200 VRB06KT P6SM SCT015 BKN025
     FM180600 20006KT P6SM VCSH BKN040
     FM181000 20006KT P6SM SKC=

USA.gov is the U.S. government's official web portal to all federal, state and local government web resources and services.